Home   Weather   Jaén   Past weeks
Flag for Spain

Past Weather in Jaén, Spain — Yesterday and Last 2 Weeks

Now
63 °F

Clear.


Feels Like: 63 °F
Forecast: 84 / 61 °F
Wind: No wind

Location: Granada / Aeropuerto

Current Time: Sep 16, 2019 at 6:53:38 am

Latest Report: Sep 16, 2019 at 6:00 am


Visibility: 10 mi

Pressure: 30.12 "Hg (28.18 "Hg at 565m altitude)

Humidity: 100%

Dew Point: 63 °F

Location of JaénLocation

Past Weather in Jaén — Graph

°F

Jaén Temperature Yesterday

Maximum temperature yesterday: 84 °F (at 4:00 pm)
Minimum temperature yesterday: 63 °F (at 8:00 am)
Average temperature yesterday: 73 °F

High & Low Weather Summary for the Past Weeks

 TemperatureHumidityPressure
High97 °F (Sep 1, 5:00 pm)100% (Sep 9, 2:00 am)30.21 "Hg (Sep 9, 2:00 am)
Low54 °F (Sep 11, 6:30 am)18% (Sep 1, 3:30 pm)29.95 "Hg (Sep 1, 4:30 pm)
Average71 °F65%30.09 "Hg
* Reported Sep 1 5:30 am — Sep 16 5:30 am, Jaén. Weather by CustomWeather, © 2019

Note: Actual official high and low records may vary slightly from our data, if they occured in-between our weather recording intervals... More about our weather records

Advertising

Jaén Weather History for the Previous 24 Hours

Scroll right to see more
 ConditionsComfort  
Time TempWeatherWind HumidityBarometerVisibility
5:30 am
Mon, Sep 16
64 °FMild.No wind94%30.12 "HgN/A
5:00 am64 °FPassing clouds.No wind94%30.12 "HgN/A
4:30 am64 °FPassing clouds.No wind94%30.12 "HgN/A
4:00 am64 °FPassing clouds.1 mph94%30.12 "HgN/A
3:00 am66 °FPassing clouds.1 mph94%30.15 "HgN/A
2:30 am66 °FPassing clouds.1 mph94%30.15 "HgN/A
2:00 am68 °FPassing clouds.No wind88%30.15 "HgN/A
1:30 am68 °FPassing clouds.No wind88%30.15 "HgN/A
1:00 am70 °FPassing clouds.No wind83%30.15 "HgN/A
12:30 am70 °FPassing clouds.3 mph83%30.15 "HgN/A
12:00 am70 °FPassing clouds.3 mph83%30.15 "HgN/A
11:30 pm
Sun, Sep 15
70 °FClear.3 mph83%30.12 "Hg10 mi
11:00 pm72 °FClear.5 mph78%30.12 "Hg10 mi
10:30 pm72 °FPassing clouds.7 mph78%30.12 "HgN/A
10:00 pm72 °FClear.6 mph78%30.12 "Hg10 mi
9:30 pm73 °FClear.1 mph74%30.09 "Hg10 mi
9:00 pm73 °FPassing clouds.6 mph74%30.09 "HgN/A
8:30 pm75 °FPassing clouds.10 mph69%30.09 "HgN/A
8:00 pm77 °FPassing clouds.9 mph61%30.07 "HgN/A
7:30 pm81 °FPassing clouds.10 mph54%30.07 "HgN/A
7:00 pm82 °FPassing clouds.10 mph48%30.07 "HgN/A
6:30 pm82 °FPassing clouds.10 mph45%30.07 "HgN/A
6:00 pm84 °FPassing clouds.9 mph37%30.07 "HgN/A
5:30 pm82 °FPassing clouds.10 mph45%30.07 "HgN/A
5:00 pm84 °FPassing clouds.9 mph40%30.07 "HgN/A
4:30 pm84 °FPassing clouds.9 mph40%30.07 "HgN/A
4:00 pm84 °FPassing clouds.7 mph37%30.07 "HgN/A
3:30 pm82 °FPassing clouds.9 mph45%30.09 "HgN/A
3:00 pm82 °FPassing clouds.7 mph48%30.09 "HgN/A
2:30 pm81 °FPassing clouds.8 mph54%30.09 "HgN/A
2:00 pm79 °FPassing clouds.5 mph61%30.09 "HgN/A
1:30 pm79 °FPassing clouds.3 mph61%30.12 "HgN/A
1:00 pm77 °FPassing clouds.2 mph61%30.12 "HgN/A
12:30 pm77 °FPassing clouds.No wind61%30.12 "HgN/A
12:00 pm75 °FPassing clouds.1 mph69%30.12 "HgN/A
11:30 am73 °FPassing clouds.No wind69%30.12 "HgN/A
11:00 am72 °FPassing clouds.No wind73%30.12 "Hg6 mi
10:30 am70 °FPassing clouds.No wind83%30.12 "Hg5 mi
10:00 am68 °FPassing clouds.No wind88%30.12 "Hg5 mi
9:30 am66 °FPassing clouds.No wind94%30.12 "Hg5 mi
9:00 am64 °FPassing clouds.No wind94%30.12 "Hg5 mi
8:30 am63 °FPassing clouds.2 mph100%30.12 "Hg5 mi
8:00 am63 °FPassing clouds.2 mph100%30.12 "Hg6 mi
7:30 am64 °FPassing clouds.2 mph94%30.12 "HgN/A
7:00 am64 °FPassing clouds.1 mph94%30.12 "HgN/A
6:30 am64 °FPassing clouds.No wind94%30.09 "HgN/A
6:00 am66 °FPassing clouds.2 mph88%30.09 "HgN/A
Weather by CustomWeather, © 2019

See weather overview